[ hide orbit diagram ]
For accurate long-term ephemerides, please instead use our Horizons system.This orbit viewer was implemented using two-body methods, and hence should not be used for determining accurate long-term trajectories (over several years or decades) or planetary encounter circumstances.
Orbital Elements at Epoch 2459000.5 (2020-May-31.0) TDB
Reference: JPL 20 (heliocentric ecliptic J2000)
Element | Value | Uncertainty (1-sigma) | Units |
e | .1209752741512749 | 4.9481e-08 | |
a | 2.545472693338607 | 2.7631e-08 | au |
q | 2.237533436417385 | 1.4138e-07 | au |
i | 3.252497252316267 | 5.6864e-06 | deg |
node | 97.15294132204912 | 0.00012814 | deg |
peri | 232.4171534774493 | 0.00013331 | deg |
M | 279.6955675736232 | 3.6684e-05 | deg |
tp | 2459331.393401504230 (2021-Apr-26.89340150) | 0.00014997 | TDB |
period | 1483.375461880435 4.06 | 2.4153e-05 6.613e-08 | d yr |
n | .2426897365173062 | 3.9516e-09 | deg/d |
Q | 2.853411950259829 | 3.0974e-08 | au |
|
| | Orbit Determination Parameters
Additional Information
|
[ show covariance matrix ]
Physical Parameter Table
Parameter |
Symbol |
Value |
Units |
Sigma |
Reference |
Notes |
absolute magnitude |
H |
17.0 |
|
n/a |
MPO471927 |
|
|
382366 (2013 TP98) Discovered 2005-Oct-25 by CSS at Catalina |
Reference: | Last Updated: 2013-12-19 |
|
Alternate Designations
2013 TP98 = 2005 UV404 = 2007 DE115 |
|
|